Location: Essen
(51.4609°N, 7.0127°E)
Time: 10:42:47
(UTC+01:00)

ISS - Pass Details

Date: 08 January 2018
Orbit: 402 x 406 km, 51.6° (Epoch: 16 January)

Event Time Altitude Azimuth Distance (km) Brightness Sun altitude
Exits shadow 06:40:28 49° 272° (W) 531 -3.7 -16.9°
Maximum altitude 06:41:14 82° 193° (SSW) 415 -3.9 -16.8°
Drops below altitude 10° 06:44:31 10° 104° (ESE) 1,466 0.4 -16.3°
Sets 06:46:36 0° 104° (ESE) 2,326 1.9 -16.0°
